M I D A S
Marine Information and Data Acquisition System
Tripno 231 of the Zeeleeuw from 2002-03-28 06:57:56 to 2002-03-28 13:16:46
Back to CruiseResearch ActivitiesStationsMapUnderway DataData graphs

EquipmentUnitsComment
TimeDGPSUTC
LatitudeDGPSDM.mWGS84
LongitudeDGPSDM.mWGS84
TemperatureSBE03/SBE38deg celciusITS90
ConductivitySBE21S/mITS90
SalinitySBE21 Practical Salinity Units
ChlorophylAChelsea fluorimeterg/lCalibrated in Aceton
Missing or incorrect values are displayed as -999
Sea surface data collected by the RV Zeeleeuw from 2002-03-28 06:57:56 to 2002-03-28 13:16:46
                                                                                    Next 1000 lines
Time Latitude Longitude Temperature Conductivity Salinity ChlorophylA
2002-03-28 06:59:16 51°13.691 2°55.907 16.162193 0.017233 0.09139  
2002-03-28 06:59:21 51°13.692 2°55.907 16.162278 0.017233 0.09139  
2002-03-28 06:59:26 51°13.692 2°55.908 16.163476 0.017233 0.09139  
2002-03-28 06:59:30 51°13.692 2°55.908 16.163476 0.017233 0.09139  
2002-03-28 06:59:35 51°13.689 2°55.907 16.162962 0.017233 0.09139  
2002-03-28 06:59:40 51°13.689 2°55.907 16.166298 0.017233 0.091389  
2002-03-28 06:59:45 51°13.689 2°55.907 16.163689 0.017233 0.091392  
2002-03-28 06:59:50 51°13.689 2°55.907 16.160097 0.017233 0.091392  
2002-03-28 06:59:55 51°13.688 2°55.907 16.160482 0.017233 0.091392  
2002-03-28 07:00:00 51°13.688 2°55.906 16.160482 0.017233 0.091392  
2002-03-28 07:00:05 51°13.687 2°55.906 16.160439 0.017233 0.091392  
2002-03-28 07:00:09 51°13.687 2°55.906 16.160739 0.017233 0.091393  
2002-03-28 07:00:15 51°13.687 2°55.906 16.159327 0.017233 0.091392  
2002-03-28 07:00:20 51°13.687 2°55.906 16.16664 0.017233 0.091392  
2002-03-28 07:00:25 51°13.687 2°55.905 16.159798 0.017233 0.091392  
2002-03-28 07:00:30 51°13.687 2°55.905 16.159798 0.017233 0.091392  
2002-03-28 07:00:35 51°13.688 2°55.906 16.15736 0.017233 0.091394  
2002-03-28 07:00:40 51°13.688 2°55.906 16.160567 0.017233 0.091393  
2002-03-28 07:00:45 51°13.688 2°55.906 16.158044 0.017233 0.091393  
2002-03-28 07:00:49 51°13.688 2°55.906 16.16493 0.017233 0.091394  
2002-03-28 07:00:55 51°13.688 2°55.906 16.16262 0.017233 0.091394  
2002-03-28 07:01:00 51°13.688 2°55.906 16.16262 0.017233 0.091394  
2002-03-28 07:01:05 51°13.688 2°55.906 16.16215 0.017233 0.091394  
2002-03-28 07:01:09 51°13.688 2°55.907 16.165657 0.017233 0.091395  
2002-03-28 07:01:15 51°13.688 2°55.907 16.158386 0.017135 0.090891  
2002-03-28 07:01:19 51°13.688 2°55.907 16.165357 0.017233 0.091394  
2002-03-28 07:01:25 51°13.689 2°55.907 16.161081 0.017233 0.091395  
2002-03-28 07:01:30 51°13.689 2°55.907 16.161081 0.017233 0.091395  
2002-03-28 07:01:35 51°13.689 2°55.907 16.164801 0.017233 0.091394  
2002-03-28 07:01:40 51°13.689 2°55.907 16.167752 0.017233 0.091396  
2002-03-28 07:01:45 51°13.689 2°55.907 16.166726 0.017233 0.091398  
2002-03-28 07:01:49 51°13.689 2°55.906 16.16215 0.017233 0.091396  
2002-03-28 07:01:55 51°13.689 2°55.906 16.160739 0.017233 0.091396  
2002-03-28 07:02:00 51°13.689 2°55.906 16.160739 0.017233 0.091396  
2002-03-28 07:02:05 51°13.689 2°55.906 16.157274 0.017233 0.091398  
2002-03-28 07:02:10 51°13.689 2°55.906 16.155435 0.017233 0.091398  
2002-03-28 07:02:15 51°13.689 2°55.906 16.154409 0.017135 0.090895  
2002-03-28 07:02:19 51°13.689 2°55.906 16.156804 0.017233 0.091398  
2002-03-28 07:02:25 51°13.689 2°55.906 16.157745 0.017233 0.091398  
2002-03-28 07:02:30 51°13.689 2°55.906 16.157745 0.017233 0.091398  
2002-03-28 07:02:35 51°13.689 2°55.906 16.156975 0.017233 0.091399  
2002-03-28 07:02:40 51°13.688 2°55.906 16.160396 0.017233 0.0914  
2002-03-28 07:02:45 51°13.688 2°55.906 16.1586 0.017135 0.090897  
2002-03-28 07:02:50 51°13.688 2°55.906 16.155563 0.017233 0.091399  
2002-03-28 07:02:55 51°13.688 2°55.906 16.156761 0.017233 0.0914  
2002-03-28 07:03:00 51°13.688 2°55.906 16.156761 0.017233 0.0914  
2002-03-28 07:03:05 51°13.688 2°55.906 16.156205 0.017233 0.0914  
2002-03-28 07:03:10 51°13.688 2°55.906 16.15783 0.017233 0.0914  
2002-03-28 07:03:15 51°13.688 2°55.906 16.155435 0.017233 0.091401  
2002-03-28 07:03:20 51°13.688 2°55.906 16.152184 0.017233 0.091401  
2002-03-28 07:03:25 51°13.688 2°55.906 16.150174 0.017135 0.090897  
2002-03-28 07:03:29 51°13.688 2°55.906 16.150174 0.017135 0.090897  
2002-03-28 07:03:35 51°13.688 2°55.906 16.153681 0.017233 0.091402  
2002-03-28 07:03:40 51°13.688 2°55.906 16.156633 0.017135 0.090899  
2002-03-28 07:03:45 51°13.688 2°55.906 16.15582 0.017135 0.090897  
2002-03-28 07:03:50 51°13.688 2°55.906 16.158343 0.017233 0.091402  
2002-03-28 07:03:55 51°13.688 2°55.906 16.15937 0.017233 0.091404  
2002-03-28 07:04:00 51°13.688 2°55.906 16.15937 0.017233 0.091404  
2002-03-28 07:04:05 51°13.688 2°55.906 16.157018 0.017135 0.0909  
2002-03-28 07:04:08 51°13.688 2°55.906 16.156034 0.017135 0.0909  
2002-03-28 07:04:11 51°13.688 2°55.906 16.159071 0.017135 0.0909  
2002-03-28 07:04:15 51°13.688 2°55.906 16.156248 0.017135 0.090901  
2002-03-28 07:04:19 51°13.688 2°55.906 16.157146 0.017233 0.091405  
2002-03-28 07:04:25 51°13.688 2°55.906 16.157146 0.017233 0.091405  
2002-03-28 07:04:30 51°13.688 2°55.906 16.157574 0.017135 0.090901  
2002-03-28 07:04:35 51°13.688 2°55.906 16.159199 0.017135 0.090901  
2002-03-28 07:04:41 51°13.688 2°55.906 16.157574 0.017135 0.090902  
2002-03-28 07:04:45 51°13.688 2°55.906 16.16138 0.017135 0.090903  
2002-03-28 07:04:51 51°13.688 2°55.906 16.160268 0.017233 0.091407  
2002-03-28 07:04:55 51°13.688 2°55.906 16.160268 0.017233 0.091407  
2002-03-28 07:05:00 51°13.688 2°55.906 16.159284 0.017135 0.090903  
2002-03-28 07:05:05 51°13.688 2°55.906 16.155264 0.017233 0.091407  
2002-03-28 07:05:09 51°13.688 2°55.906 16.153083 0.017233 0.091408  
2002-03-28 07:05:15 51°13.688 2°55.906 16.153468 0.017135 0.090905  
2002-03-28 07:05:19 51°13.688 2°55.906 16.157531 0.017135 0.090905  
2002-03-28 07:05:25 51°13.688 2°55.906 16.157531 0.017135 0.090905  
2002-03-28 07:05:31 51°13.688 2°55.906 16.150858 0.017233 0.091407  
2002-03-28 07:05:35 51°13.688 2°55.906 16.150773 0.017233 0.091408  
2002-03-28 07:05:40 51°13.688 2°55.906 16.150773 0.017233 0.091408  
2002-03-28 07:05:45 51°13.688 2°55.906 16.152954 0.017135 0.090906  
2002-03-28 07:05:50 51°13.688 2°55.906 16.152184 0.017233 0.09141  
2002-03-28 07:05:55 51°13.688 2°55.906 16.152184 0.017233 0.09141  
2002-03-28 07:06:00 51°13.688 2°55.906 16.154409 0.017135 0.090906  
2002-03-28 07:06:05 51°13.688 2°55.906 16.156419 0.017233 0.091411  
2002-03-28 07:06:10 51°13.688 2°55.906 16.155606 0.017135 0.090907  
2002-03-28 07:06:15 51°13.688 2°55.906 16.163091 0.017135 0.090908  
2002-03-28 07:06:20 51°13.688 2°55.906 16.16215 0.017233 0.091412  
2002-03-28 07:06:25 51°13.688 2°55.907 16.16215 0.017233 0.091412  
2002-03-28 07:06:29 51°13.688 2°55.907 16.15937 0.017135 0.090909  
2002-03-28 07:06:35 51°13.688 2°55.906 16.157745 0.017233 0.091413  
2002-03-28 07:06:40 51°13.688 2°55.906 16.157445 0.017135 0.090909  
2002-03-28 07:06:45 51°13.689 2°55.906 16.15582 0.017135 0.090908  
2002-03-28 07:06:49 51°13.689 2°55.906 16.329635 0.017135 0.090911  
2002-03-28 07:06:55 51°13.689 2°55.906 16.329635 0.017135 0.090911  
2002-03-28 07:07:00 51°13.689 2°55.907 16.154922 0.017135 0.090911  
2002-03-28 07:07:05 51°13.689 2°55.907 16.158643 0.017233 0.091415  
2002-03-28 07:07:11 51°13.689 2°55.907 16.157317 0.017233 0.091415  
2002-03-28 07:07:15 51°13.689 2°55.907 16.157531 0.017135 0.090912  
2002-03-28 07:07:20 51°13.689 2°55.907 16.162278 0.017135 0.090912  
2002-03-28 07:07:25 51°13.689 2°55.907 16.162278 0.017135 0.090912  
2002-03-28 07:07:29 51°13.689 2°55.907 16.16014 0.017135 0.090912  
2002-03-28 07:07:35 51°13.689 2°55.906 16.160183 0.017135 0.090914  
2002-03-28 07:07:40 51°13.689 2°55.906 16.159883 0.017135 0.090912  
2002-03-28 07:07:45 51°13.689 2°55.906 16.162492 0.017135 0.090913  
2002-03-28 07:07:50 51°13.689 2°55.907 16.159028 0.017135 0.090914  
2002-03-28 07:07:55 51°13.689 2°55.906 16.159028 0.017135 0.090914  
2002-03-28 07:08:00 51°13.689 2°55.906 16.155178 0.017135 0.090914  
2002-03-28 07:08:05 51°13.689 2°55.906 16.156847 0.017135 0.090914  
2002-03-28 07:08:10 51°13.689 2°55.906 16.158044 0.017135 0.090915  
2002-03-28 07:08:15 51°13.689 2°55.907 16.158258 0.017233 0.091419  
2002-03-28 07:08:20 51°13.689 2°55.907 16.157146 0.017135 0.090915  
2002-03-28 07:08:25 51°13.689 2°55.906 16.157146 0.017135 0.090915  
2002-03-28 07:08:30 51°13.689 2°55.906 16.157916 0.017135 0.090917  
2002-03-28 07:08:35 51°13.689 2°55.906 16.15937 0.017135 0.090915  
2002-03-28 07:08:40 51°13.689 2°55.906 16.157787 0.017135 0.090917  
2002-03-28 07:08:45 51°13.689 2°55.906 16.157231 0.017135 0.090917  
2002-03-28 07:08:50 51°13.689 2°55.906 16.157103 0.017135 0.090917  
2002-03-28 07:08:55 51°13.689 2°55.906 16.157103 0.017135 0.090917  
2002-03-28 07:09:00 51°13.689 2°55.906 16.160482 0.017135 0.090918  
2002-03-28 07:09:05 51°13.689 2°55.906 16.162706 0.017135 0.090919  
2002-03-28 07:09:09 51°13.688 2°55.906 16.160567 0.017135 0.090918  
2002-03-28 07:09:15 51°13.688 2°55.906 16.160354 0.017135 0.090919  
2002-03-28 07:09:20 51°13.688 2°55.906 16.161295 0.017135 0.09092  
2002-03-28 07:09:25 51°13.687 2°55.905 16.161295 0.017135 0.09092  
2002-03-28 07:09:30 51°13.687 2°55.906 16.159455 0.017135 0.09092  
2002-03-28 07:09:35 51°13.688 2°55.906 16.160867 0.017135 0.090919  
2002-03-28 07:09:40 51°13.688 2°55.906 16.162321 0.017135 0.09092  
2002-03-28 07:09:45 51°13.689 2°55.906 16.165315 0.017135 0.09092  
2002-03-28 07:09:50 51°13.689 2°55.906 16.166042 0.017233 0.091424  
2002-03-28 07:09:55 51°13.689 2°55.906 16.166042 0.017233 0.091424  
2002-03-28 07:10:00 51°13.689 2°55.906 16.164416 0.017135 0.090921  
2002-03-28 07:10:05 51°13.689 2°55.906 16.165742 0.017135 0.090921  
2002-03-28 07:10:10 51°13.689 2°55.906 16.165528 0.017135 0.090921  
2002-03-28 07:10:15 51°13.689 2°55.906 16.165486 0.017135 0.090921  
2002-03-28 07:10:19 51°13.689 2°55.906 16.16664 0.017135 0.090923  
2002-03-28 07:10:25 51°13.689 2°55.906 16.16664 0.017135 0.090923  
2002-03-28 07:10:30 51°13.689 2°55.906 16.166341 0.017135 0.090923  
2002-03-28 07:10:35 51°13.688 2°55.905 16.163946 0.017135 0.090923  
2002-03-28 07:10:40 51°13.687 2°55.905 16.167838 0.017135 0.090924  
2002-03-28 07:10:45 51°13.687 2°55.905 16.170489 0.017135 0.090924  
2002-03-28 07:10:49 51°13.688 2°55.905 16.16262 0.017135 0.090924  
2002-03-28 07:10:55 51°13.688 2°55.905 16.16262 0.017135 0.090924  
2002-03-28 07:11:00 51°13.688 2°55.905 16.162962 0.017135 0.090924  
2002-03-28 07:11:05 51°13.688 2°55.905 16.162962 0.017135 0.090924  
2002-03-28 07:11:11 51°13.688 2°55.905 16.161295 0.017135 0.090925  
2002-03-28 07:11:15 51°13.688 2°55.905 16.163775 0.017135 0.090924  
2002-03-28 07:11:21 51°13.689 2°55.905 16.16215 0.017135 0.090925  
2002-03-28 07:11:25 51°13.689 2°55.905 16.16215 0.017135 0.090925  
2002-03-28 07:11:31 51°13.689 2°55.905 16.164245 0.017135 0.090924  
2002-03-28 07:11:35 51°13.689 2°55.905 16.163989 0.017135 0.090926  
2002-03-28 07:11:40 51°13.689 2°55.905 16.166042 0.017135 0.090925  
2002-03-28 07:11:45 51°13.689 2°55.905 16.165956 0.017135 0.090927  
2002-03-28 07:11:50 51°13.689 2°55.906 16.16493 0.017135 0.090926  
2002-03-28 07:11:55 51°13.69 2°55.906 16.16493 0.017135 0.090926  
2002-03-28 07:12:01 51°13.69 2°55.906 16.165614 0.017135 0.090926  
2002-03-28 07:12:05 51°13.69 2°55.906 16.16138 0.017135 0.090927  
2002-03-28 07:12:10 51°13.69 2°55.906 16.164288 0.017135 0.090927  
2002-03-28 07:12:15 51°13.69 2°55.906 16.162492 0.017135 0.090927  
2002-03-28 07:12:20 51°13.69 2°55.906 16.164117 0.017135 0.090929  
2002-03-28 07:12:25 51°13.69 2°55.906 16.164117 0.017135 0.090929  
2002-03-28 07:12:30 51°13.69 2°55.906 16.16339 0.017135 0.090926  
2002-03-28 07:12:35 51°13.691 2°55.906 16.164288 0.017135 0.090929  
2002-03-28 07:12:40 51°13.691 2°55.906 16.163903 0.017135 0.090929  
2002-03-28 07:12:45 51°13.689 2°55.906 16.163903 0.017135 0.090929  
2002-03-28 07:12:51 51°13.689 2°55.905 16.163818 0.017135 0.09093  
2002-03-28 07:12:55 51°13.688 2°55.905 16.163818 0.017135 0.09093  
2002-03-28 07:13:00 51°13.689 2°55.906 16.161081 0.017135 0.09093  
2002-03-28 07:13:05 51°13.69 2°55.907 16.163005 0.017135 0.09093  
2002-03-28 07:13:09 51°13.691 2°55.907 16.159071 0.017135 0.09093  
2002-03-28 07:13:15 51°13.691 2°55.907 16.163518 0.017135 0.090931  
2002-03-28 07:13:20 51°13.691 2°55.907 16.162193 0.017135 0.090931  
2002-03-28 07:13:25 51°13.691 2°55.907 16.162193 0.017135 0.090931  
2002-03-28 07:13:30 51°13.691 2°55.907 16.158215 0.017135 0.090931  
2002-03-28 07:13:35 51°13.691 2°55.907 16.156504 0.017135 0.090932  
2002-03-28 07:13:40 51°13.691 2°55.907 16.154751 0.017135 0.090932  
2002-03-28 07:13:45 51°13.691 2°55.907 16.157531 0.017135 0.090932  
2002-03-28 07:13:50 51°13.691 2°55.907 16.15736 0.017135 0.090932  
2002-03-28 07:13:55 51°13.691 2°55.907 16.15736 0.017135 0.090932  
2002-03-28 07:14:01 51°13.691 2°55.907 16.161551 0.017135 0.090933  
2002-03-28 07:14:05 51°13.691 2°55.907 16.157231 0.017135 0.090933  
2002-03-28 07:14:11 51°13.691 2°55.907 16.155606 0.017135 0.090933  
2002-03-28 07:14:15 51°13.691 2°55.908 16.154922 0.017135 0.090933  
2002-03-28 07:14:20 51°13.691 2°55.908 16.15274 0.017135 0.090932  
2002-03-28 07:14:25 51°13.69 2°55.907 16.15274 0.017135 0.090932  
2002-03-28 07:14:30 51°13.69 2°55.907 16.16215 0.017135 0.090933  
2002-03-28 07:14:35 51°13.689 2°55.907 16.158087 0.017135 0.090935  
2002-03-28 07:14:41 51°13.689 2°55.907 16.157317 0.017135 0.090933  
2002-03-28 07:14:45 51°13.689 2°55.907 16.152398 0.017135 0.090936  
2002-03-28 07:14:51 51°13.689 2°55.906 16.15582 0.017135 0.090936  
2002-03-28 07:14:55 51°13.689 2°55.907 16.15582 0.017135 0.090936  
2002-03-28 07:15:01 51°13.689 2°55.906 16.152099 0.017135 0.090935  
2002-03-28 07:15:05 51°13.689 2°55.906 16.150003 0.017135 0.090936  
2002-03-28 07:15:09 51°13.689 2°55.906 16.151115 0.017135 0.090936  
2002-03-28 07:15:15 51°13.689 2°55.906 16.154494 0.017135 0.090937  
2002-03-28 07:15:21 51°13.69 2°55.906 16.15505 0.017135 0.090936  
2002-03-28 07:15:25 51°13.69 2°55.906 16.15505 0.017135 0.090936  
2002-03-28 07:15:29 51°13.69 2°55.906 16.157445 0.017135 0.090936  
2002-03-28 07:15:35 51°13.69 2°55.906 16.154409 0.017135 0.090936  
2002-03-28 07:15:39 51°13.69 2°55.906 16.148891 0.017135 0.090937  
2002-03-28 07:15:45 51°13.69 2°55.906 16.147436 0.017135 0.090937  
2002-03-28 07:15:50 51°13.69 2°55.906 16.146581 0.017135 0.090937  
2002-03-28 07:15:55 51°13.689 2°55.905 16.146581 0.017135 0.090937  
2002-03-28 07:16:01 51°13.688 2°55.905 16.148206 0.017135 0.090938  
2002-03-28 07:16:05 51°13.688 2°55.905 16.154409 0.017135 0.090938  
2002-03-28 07:16:09 51°13.689 2°55.905 16.15351 0.017135 0.090938  
2002-03-28 07:16:15 51°13.689 2°55.905 16.151671 0.017135 0.090937  
2002-03-28 07:16:20 51°13.689 2°55.905 16.149789 0.017135 0.090938  
2002-03-28 07:16:25 51°13.689 2°55.905 16.149789 0.017135 0.090938  
2002-03-28 07:16:30 51°13.689 2°55.905 16.151286 0.017135 0.090939  
2002-03-28 07:16:35 51°13.688 2°55.905 16.150687 0.017135 0.090939  
2002-03-28 07:16:39 51°13.688 2°55.905 16.146453 0.017135 0.090939  
2002-03-28 07:16:45 51°13.688 2°55.905 16.146367 0.017135 0.090939  
2002-03-28 07:16:50 51°13.689 2°55.905 16.147137 0.017135 0.090941  
2002-03-28 07:16:55 51°13.689 2°55.905 16.147137 0.017135 0.090941  
2002-03-28 07:16:59 51°13.689 2°55.905 16.154066 0.017135 0.090941  
2002-03-28 07:17:05 51°13.689 2°55.905 16.152313 0.017135 0.090941  
2002-03-28 07:17:09 51°13.689 2°55.905 16.151072 0.017135 0.090941  
2002-03-28 07:17:15 51°13.689 2°55.906 16.149447 0.017135 0.090942  
2002-03-28 07:17:20 51°13.689 2°55.905 16.147864 0.017135 0.090941  
2002-03-28 07:17:25 51°13.689 2°55.905 16.147864 0.017135 0.090941  
2002-03-28 07:17:30 51°13.689 2°55.905 16.147094 0.017135 0.090941  
2002-03-28 07:17:35 51°13.689 2°55.906 16.14718 0.017135 0.090943  
2002-03-28 07:17:40 51°13.689 2°55.906 16.145554 0.017135 0.090942  
2002-03-28 07:17:45 51°13.689 2°55.906 16.14996 0.017135 0.090942  
2002-03-28 07:17:51 51°13.689 2°55.906 16.147308 0.017135 0.090943  
2002-03-28 07:17:55 51°13.689 2°55.906 16.147308 0.017135 0.090943  
2002-03-28 07:18:00 51°13.689 2°55.906 16.14303 0.017135 0.090943  
2002-03-28 07:18:05 51°13.689 2°55.906 16.1438 0.017135 0.090944  
2002-03-28 07:18:09 51°13.689 2°55.906 16.148078 0.017135 0.090944  
2002-03-28 07:18:15 51°13.69 2°55.906 16.141704 0.017135 0.090944  
2002-03-28 07:18:20 51°13.69 2°55.906 16.14303 0.017135 0.090943  
2002-03-28 07:18:25 51°13.69 2°55.906 16.14303 0.017135 0.090943  
2002-03-28 07:18:30 51°13.69 2°55.906 16.142731 0.017135 0.090944  
2002-03-28 07:18:35 51°13.69 2°55.906 16.14072 0.017135 0.090944  
2002-03-28 07:18:39 51°13.69 2°55.906 16.142303 0.017135 0.090946  
2002-03-28 07:18:45 51°13.69 2°55.906 16.147693 0.017135 0.090944  
2002-03-28 07:18:51 51°13.69 2°55.906 16.145683 0.017135 0.090946  
2002-03-28 07:18:55 51°13.69 2°55.906 16.145683 0.017135 0.090946  
2002-03-28 07:18:59 51°13.69 2°55.906 16.142389 0.017135 0.090946  
2002-03-28 07:19:05 51°13.69 2°55.906 16.137982 0.017135 0.090947  
2002-03-28 07:19:09 51°13.69 2°55.906 16.141704 0.017135 0.090946  
2002-03-28 07:19:15 51°13.69 2°55.907 16.142004 0.017135 0.090947  
2002-03-28 07:19:21 51°13.69 2°55.907 16.139993 0.017135 0.090947  
2002-03-28 07:19:25 51°13.69 2°55.907 16.139993 0.017135 0.090947  
2002-03-28 07:19:30 51°13.69 2°55.907 16.14256 0.017135 0.090949  
2002-03-28 07:19:35 51°13.69 2°55.906 16.140891 0.017135 0.090948  
2002-03-28 07:19:40 51°13.69 2°55.907 16.140506 0.017135 0.090948  
2002-03-28 07:19:45 51°13.69 2°55.907 16.147351 0.017135 0.090948  
2002-03-28 07:19:50 51°13.69 2°55.907 16.146752 0.017135 0.090948  
2002-03-28 07:19:55 51°13.69 2°55.907 16.146752 0.017135 0.090948  
2002-03-28 07:20:01 51°13.69 2°55.907 16.14303 0.017135 0.090949  
2002-03-28 07:20:05 51°13.69 2°55.906 16.140806 0.017135 0.090949  
2002-03-28 07:20:11 51°13.69 2°55.907 16.143544 0.017135 0.090949  
2002-03-28 07:20:15 51°13.69 2°55.906 16.140207 0.017135 0.09095  
2002-03-28 07:20:20 51°13.69 2°55.907 16.144442 0.017135 0.09095  
2002-03-28 07:20:25 51°13.69 2°55.907 16.144442 0.017135 0.09095  
2002-03-28 07:20:31 51°13.69 2°55.907 16.143629 0.017135 0.09095  
2002-03-28 07:20:35 51°13.69 2°55.907 16.140378 0.017135 0.09095  
2002-03-28 07:20:41 51°13.69 2°55.907 16.144057 0.017135 0.09095  
2002-03-28 07:20:45 51°13.69 2°55.907 16.141918 0.017135 0.090952  
2002-03-28 07:20:50 51°13.69 2°55.907 16.148506 0.017135 0.090952  
2002-03-28 07:20:55 51°13.69 2°55.907 16.148506 0.017135 0.090952  
2002-03-28 07:21:00 51°13.69 2°55.907 16.144827 0.017135 0.090952  
2002-03-28 07:21:05 51°13.69 2°55.907 16.146025 0.017135 0.090953  
2002-03-28 07:21:11 51°13.69 2°55.907 16.145597 0.017135 0.090952  
2002-03-28 07:21:15 51°13.69 2°55.907 16.1438 0.017135 0.090953  
2002-03-28 07:21:21 51°13.69 2°55.907 16.150388 0.017135 0.090953  
2002-03-28 07:21:25 51°13.691 2°55.907 16.150388 0.017135 0.090953  
2002-03-28 07:21:29 51°13.691 2°55.907 16.143586 0.017135 0.090953  
2002-03-28 07:21:35 51°13.691 2°55.907 16.142816 0.017135 0.090954  
2002-03-28 07:21:40 51°13.691 2°55.907 16.143201 0.017135 0.090954  
2002-03-28 07:21:45 51°13.691 2°55.907 16.142389 0.017135 0.090955  
2002-03-28 07:21:50 51°13.691 2°55.907 16.143415 0.017135 0.090954  
2002-03-28 07:21:55 51°13.691 2°55.907 16.143415 0.017135 0.090954  
2002-03-28 07:22:00 51°13.691 2°55.907 16.142303 0.017135 0.090955  
2002-03-28 07:22:05 51°13.691 2°55.907 16.144143 0.017135 0.090955  
2002-03-28 07:22:10 51°13.691 2°55.907 16.142688 0.017135 0.090955  
2002-03-28 07:22:15 51°13.691 2°55.907 16.143415 0.017135 0.090955  
2002-03-28 07:22:20 51°13.691 2°55.907 16.14256 0.017135 0.090958  
2002-03-28 07:22:25 51°13.691 2°55.907 16.14256 0.017135 0.090958  
2002-03-28 07:22:30 51°13.691 2°55.907 16.141918 0.017135 0.090956  
2002-03-28 07:22:35 51°13.691 2°55.907 16.142902 0.017135 0.090958  
2002-03-28 07:22:39 51°13.691 2°55.907 16.142132 0.017135 0.090956  
2002-03-28 07:22:45 51°13.691 2°55.907 16.143501 0.017135 0.090958  
2002-03-28 07:22:51 51°13.691 2°55.907 16.146752 0.017135 0.090958  
2002-03-28 07:22:55 51°13.691 2°55.907 16.146752 0.017135 0.090958  
2002-03-28 07:23:00 51°13.691 2°55.907 16.147137 0.017135 0.090959  
2002-03-28 07:23:05 51°13.691 2°55.907 16.150302 0.017135 0.090959  
2002-03-28 07:23:09 51°13.691 2°55.907 16.148549 0.017135 0.090959  
2002-03-28 07:23:15 51°13.691 2°55.907 16.145426 0.017135 0.09096  
2002-03-28 07:23:20 51°13.691 2°55.907 16.144442 0.017135 0.09096  
2002-03-28 07:23:25 51°13.691 2°55.907 16.144442 0.017135 0.09096  
2002-03-28 07:23:31 51°13.689 2°55.907 16.146666 0.017135 0.09096  
2002-03-28 07:23:35 51°13.689 2°55.907 16.147907 0.017135 0.090961  
2002-03-28 07:23:40 51°13.689 2°55.907 16.151586 0.017135 0.090961  
2002-03-28 07:23:45 51°13.689 2°55.907 16.152313 0.017135 0.090961  
2002-03-28 07:23:50 51°13.688 2°55.907 16.150773 0.017135 0.090961  
2002-03-28 07:23:55 51°13.688 2°55.907 16.150773 0.017135 0.090961  
2002-03-28 07:24:00 51°13.688 2°55.907 16.149361 0.017135 0.090962  
2002-03-28 07:24:05 51°13.688 2°55.906 16.148891 0.017135 0.090964  
2002-03-28 07:24:11 51°13.688 2°55.907 16.145169 0.017135 0.090962  
2002-03-28 07:24:15 51°13.688 2°55.907 16.145725 0.017135 0.090964  
2002-03-28 07:24:21 51°13.688 2°55.906 16.146581 0.017135 0.090964  
2002-03-28 07:24:25 51°13.688 2°55.906 16.146581 0.017135 0.090964  
2002-03-28 07:24:31 51°13.688 2°55.906 16.148078 0.017135 0.090965  
2002-03-28 07:24:35 51°13.688 2°55.906 16.145982 0.017135 0.090965  
2002-03-28 07:24:40 51°13.688 2°55.906 16.14688 0.017135 0.090964  
2002-03-28 07:24:45 51°13.688 2°55.906 16.146153 0.017135 0.090965  
2002-03-28 07:24:51 51°13.688 2°55.906 16.146709 0.017135 0.090964  
2002-03-28 07:24:55 51°13.688 2°55.906 16.146709 0.017135 0.090964  
2002-03-28 07:25:01 51°13.688 2°55.906 16.14795 0.017135 0.090965  
2002-03-28 07:25:05 51°13.688 2°55.906 16.14765 0.017135 0.090965  
2002-03-28 07:25:11 51°13.688 2°55.906 16.151286 0.017135 0.090966  
2002-03-28 07:25:15 51°13.687 2°55.906 16.148164 0.017135 0.090966  
2002-03-28 07:25:21 51°13.687 2°55.906 16.14795 0.017135 0.090966  
2002-03-28 07:25:26 51°13.687 2°55.906 16.14795 0.017135 0.090966  
2002-03-28 07:25:31 51°13.687 2°55.906 16.14688 0.017135 0.090966  
2002-03-28 07:25:36 51°13.687 2°55.906 16.146068 0.017135 0.090966  
2002-03-28 07:25:41 51°13.687 2°55.906 16.148848 0.017135 0.090967  
2002-03-28 07:25:46 51°13.687 2°55.906 16.151885 0.017135 0.090967  
2002-03-28 07:25:51 51°13.687 2°55.906 16.151115 0.017135 0.090968  
2002-03-28 07:25:56 51°13.687 2°55.906 16.151115 0.017135 0.090968  
2002-03-28 07:26:01 51°13.687 2°55.906 16.153596 0.017135 0.090967  
2002-03-28 07:26:06 51°13.687 2°55.906 16.148805 0.017135 0.090968  
2002-03-28 07:26:11 51°13.687 2°55.906 16.14611 0.017135 0.090968  
2002-03-28 07:26:16 51°13.687 2°55.906 16.14303 0.017135 0.09097  
2002-03-28 07:26:21 51°13.687 2°55.906 16.14179 0.017135 0.09097  
2002-03-28 07:26:26 51°13.687 2°55.906 16.14179 0.017135 0.09097  
2002-03-28 07:26:31 51°13.687 2°55.906 16.146068 0.017135 0.09097  
2002-03-28 07:26:36 51°13.687 2°55.906 16.144442 0.017135 0.09097  
2002-03-28 07:26:41 51°13.687 2°55.906 16.149361 0.017135 0.090971  
2002-03-28 07:26:46 51°13.687 2°55.906 16.152527 0.017135 0.090971  
2002-03-28 07:26:51 51°13.687 2°55.906 16.151158 0.017135 0.090971  
2002-03-28 07:26:55 51°13.687 2°55.906 16.151158 0.017135 0.090971  
2002-03-28 07:27:01 51°13.687 2°55.906 16.152013 0.017135 0.090971  
2002-03-28 07:27:05 51°13.688 2°55.907 16.153168 0.017135 0.090971  
2002-03-28 07:27:09 51°13.688 2°55.907 16.152099 0.017135 0.090972  
2002-03-28 07:27:15 51°13.689 2°55.907 16.149062 0.017135 0.090972  
2002-03-28 07:27:20 51°13.688 2°55.907 16.152184 0.017135 0.090972  
2002-03-28 07:27:24 51°13.688 2°55.907 16.152184 0.017135 0.090972  
2002-03-28 07:27:29 51°13.688 2°55.907 16.152398 0.017135 0.090972  
2002-03-28 07:27:36 51°13.688 2°55.906 16.153125 0.017135 0.090973  
2002-03-28 07:27:42 51°13.688 2°55.906 16.149661 0.017135 0.090972  
2002-03-28 07:27:46 51°13.688 2°55.906 16.150217 0.017135 0.090973  
2002-03-28 07:27:51 51°13.688 2°55.906 16.153553 0.017135 0.090973  
2002-03-28 07:27:56 51°13.688 2°55.906 16.153553 0.017135 0.090973  
2002-03-28 07:28:01 51°13.688 2°55.906 16.147864 0.017135 0.090974  
2002-03-28 07:28:05 51°13.688 2°55.906 16.143886 0.017135 0.090976  
2002-03-28 07:28:10 51°13.688 2°55.906 16.14487 0.017135 0.090973  
2002-03-28 07:28:16 51°13.688 2°55.906 16.148164 0.017135 0.090974  
2002-03-28 07:28:20 51°13.688 2°55.906 16.148164 0.017135 0.090974  
2002-03-28 07:28:25 51°13.688 2°55.906 16.148164 0.017135 0.090974  
2002-03-28 07:28:31 51°13.688 2°55.906 16.146838 0.017135 0.090976  
2002-03-28 07:28:36 51°13.688 2°55.906 16.150645 0.017135 0.090976  
2002-03-28 07:28:42 51°13.688 2°55.906 16.152056 0.017135 0.090976  
2002-03-28 07:28:46 51°13.688 2°55.906 16.152227 0.017135 0.090977  
2002-03-28 07:28:52 51°13.688 2°55.906 16.150388 0.017135 0.090976  
2002-03-28 07:28:56 51°13.688 2°55.906 16.150388 0.017135 0.090976  
2002-03-28 07:29:00 51°13.688 2°55.906 16.152184 0.017135 0.090976  
2002-03-28 07:29:05 51°13.688 2°55.907 16.151714 0.017135 0.090977  
2002-03-28 07:29:10 51°13.689 2°55.907 16.157745 0.017135 0.090978  
2002-03-28 07:29:15 51°13.689 2°55.907 16.159327 0.017135 0.090977  
2002-03-28 07:29:20 51°13.689 2°55.907 16.162064 0.017135 0.090977  
2002-03-28 07:29:25 51°13.689 2°55.907 16.162064 0.017135 0.090977  
2002-03-28 07:29:31 51°13.689 2°55.907 16.158472 0.017135 0.090978  
2002-03-28 07:29:36 51°13.689 2°55.907 16.156376 0.017135 0.090978  
2002-03-28 07:29:41 51°13.689 2°55.907 16.157146 0.017135 0.090978  
2002-03-28 07:29:46 51°13.688 2°55.906 16.157574 0.017135 0.090978  
2002-03-28 07:29:50 51°13.688 2°55.906 16.153553 0.017135 0.090979  
2002-03-28 07:29:56 51°13.688 2°55.906 16.153553 0.017135 0.090979  
2002-03-28 07:30:01 51°13.688 2°55.906 16.148377 0.017135 0.090979  
2002-03-28 07:30:05 51°13.688 2°55.906 16.149661 0.017135 0.090979  
2002-03-28 07:30:10 51°13.688 2°55.906 16.154109 0.017135 0.090979  
2002-03-28 07:30:15 51°13.688 2°55.906 16.152398 0.017135 0.090979  
2002-03-28 07:30:20 51°13.688 2°55.906 16.153767 0.017135 0.09098  
2002-03-28 07:30:25 51°13.688 2°55.906 16.153767 0.017135 0.09098  
2002-03-28 07:30:31 51°13.688 2°55.906 16.15783 0.017135 0.09098  
2002-03-28 07:30:35 51°13.688 2°55.906 16.163433 0.017135 0.09098  
2002-03-28 07:30:41 51°13.688 2°55.906 16.163775 0.017135 0.09098  
2002-03-28 07:30:46 51°13.688 2°55.906 16.162962 0.017135 0.09098  
2002-03-28 07:30:52 51°13.687 2°55.906 16.161979 0.017135 0.09098  
2002-03-28 07:30:56 51°13.687 2°55.906 16.161979 0.017135 0.09098  
2002-03-28 07:31:01 51°13.687 2°55.906 16.159712 0.017135 0.090982  
2002-03-28 07:31:06 51°13.687 2°55.906 16.160011 0.017135 0.090982  
2002-03-28 07:31:11 51°13.687 2°55.906 16.160311 0.017135 0.090982  
2002-03-28 07:31:16 51°13.686 2°55.905 16.157488 0.017135 0.090982  
2002-03-28 07:31:20 51°13.686 2°55.905 16.154922 0.017135 0.090983  
2002-03-28 07:31:26 51°13.686 2°55.905 16.154922 0.017135 0.090983  
2002-03-28 07:31:29 51°13.686 2°55.905 16.15351 0.017135 0.090982  
2002-03-28 07:31:35 51°13.687 2°55.906 16.154237 0.017135 0.090983  
2002-03-28 07:31:40 51°13.687 2°55.906 16.156633 0.017135 0.090983  
2002-03-28 07:31:45 51°13.688 2°55.906 16.157531 0.017135 0.090983  
2002-03-28 07:31:50 51°13.688 2°55.906 16.16061 0.017135 0.090983  
2002-03-28 07:31:56 51°13.688 2°55.906 16.16061 0.017135 0.090983  
2002-03-28 07:32:01 51°13.687 2°55.906 16.160995 0.017135 0.090983  
2002-03-28 07:32:06 51°13.686 2°55.905 16.165528 0.017135 0.090983  
2002-03-28 07:32:10 51°13.686 2°55.905 16.163946 0.017135 0.090983  
2002-03-28 07:32:16 51°13.686 2°55.905 16.165913 0.017135 0.090984  
2002-03-28 07:32:20 51°13.686 2°55.905 16.169377 0.017135 0.090984  
2002-03-28 07:32:24 51°13.686 2°55.905 16.169377 0.017135 0.090984  
2002-03-28 07:32:29 51°13.687 2°55.906 16.177031 0.017135 0.090985  
2002-03-28 07:32:35 51°13.688 2°55.906 16.172884 0.017135 0.090984  
2002-03-28 07:32:40 51°13.688 2°55.906 16.169121 0.017135 0.090984  
2002-03-28 07:32:45 51°13.689 2°55.906 16.162535 0.017135 0.090985  
2002-03-28 07:32:50 51°13.689 2°55.906 16.159969 0.017135 0.090985  
2002-03-28 07:32:55 51°13.689 2°55.906 16.159969 0.017135 0.090985  
2002-03-28 07:33:00 51°13.689 2°55.907 16.161166 0.017135 0.090985  
2002-03-28 07:33:05 51°13.689 2°55.907 16.160781 0.017135 0.090985  
2002-03-28 07:33:10 51°13.689 2°55.907 16.161679 0.017135 0.090985  
2002-03-28 07:33:16 51°13.688 2°55.906 16.163305 0.017135 0.090985  
2002-03-28 07:33:20 51°13.688 2°55.906 16.165699 0.017135 0.090986  
2002-03-28 07:33:25 51°13.688 2°55.906 16.165699 0.017135 0.090986  
2002-03-28 07:33:31 51°13.688 2°55.906 16.168565 0.017135 0.090986  
2002-03-28 07:33:35 51°13.689 2°55.906 16.169035 0.017135 0.090986  
2002-03-28 07:33:40 51°13.689 2°55.906 16.166598 0.017135 0.090986  
2002-03-28 07:33:45 51°13.689 2°55.907 16.165144 0.017135 0.090986  
2002-03-28 07:33:51 51°13.69 2°55.907 16.161851 0.017135 0.090986  
2002-03-28 07:33:55 51°13.689 2°55.906 16.161851 0.017135 0.090986  
2002-03-28 07:34:02 51°13.689 2°55.906 16.16091 0.017135 0.090988  
2002-03-28 07:34:06 51°13.688 2°55.906 16.159327 0.017135 0.090988  
2002-03-28 07:34:11 51°13.688 2°55.906 16.161081 0.017135 0.090988  
2002-03-28 07:34:16 51°13.688 2°55.906 16.163818 0.017135 0.090989  
2002-03-28 07:34:21 51°13.688 2°55.906 16.162406 0.017135 0.090988  
2002-03-28 07:34:26 51°13.688 2°55.906 16.162406 0.017135 0.090988  
2002-03-28 07:34:30 51°13.689 2°55.906 16.163262 0.017135 0.09099  
2002-03-28 07:34:36 51°13.689 2°55.906 16.164716 0.017135 0.090989  
2002-03-28 07:34:40 51°13.689 2°55.906 16.165999 0.017135 0.090988  
2002-03-28 07:34:45 51°13.689 2°55.906 16.167153 0.017135 0.090989  
2002-03-28 07:34:51 51°13.688 2°55.905 16.170147 0.017135 0.090988  
2002-03-28 07:34:55 51°13.688 2°55.905 16.170147 0.017135 0.090988  
2002-03-28 07:35:01 51°13.689 2°55.905 16.171857 0.017135 0.090989  
2002-03-28 07:35:06 51°13.689 2°55.905 16.173782 0.017135 0.09099  
2002-03-28 07:35:11 51°13.689 2°55.905 16.171088 0.017135 0.09099  
2002-03-28 07:35:16 51°13.689 2°55.905 16.169634 0.017135 0.09099  
2002-03-28 07:35:21 51°13.689 2°55.905 16.167923 0.017135 0.090989  
2002-03-28 07:35:26 51°13.689 2°55.905 16.167923 0.017135 0.090989  
2002-03-28 07:35:31 51°13.689 2°55.905 16.169163 0.017135 0.090989  
2002-03-28 07:35:35 51°13.689 2°55.905 16.170275 0.017135 0.09099  
2002-03-28 07:35:40 51°13.69 2°55.906 16.170147 0.017135 0.090991  
2002-03-28 07:35:45 51°13.691 2°55.906 16.169548 0.017135 0.090991  
2002-03-28 07:35:51 51°13.691 2°55.906 16.167538 0.017135 0.090991  
2002-03-28 07:35:55 51°13.691 2°55.906 16.167538 0.017135 0.090991  
2002-03-28 07:36:01 51°13.692 2°55.906 16.174295 0.017135 0.090991  
2002-03-28 07:36:05 51°13.692 2°55.906 16.178613 0.017135 0.090991  
2002-03-28 07:36:11 51°13.691 2°55.906 16.173568 0.017135 0.090992  
2002-03-28 07:36:15 51°13.691 2°55.906 16.17066 0.017135 0.090994  
2002-03-28 07:36:21 51°13.691 2°55.906 16.167025 0.017135 0.090991  
2002-03-28 07:36:25 51°13.691 2°55.906 16.167025 0.017135 0.090991  
2002-03-28 07:36:30 51°13.691 2°55.906 16.1719 0.017135 0.090992  
2002-03-28 07:36:35 51°13.691 2°55.906 16.169249 0.017135 0.090992  
2002-03-28 07:36:41 51°13.691 2°55.906 16.169463 0.017135 0.090994  
2002-03-28 07:36:45 51°13.691 2°55.906 16.165742 0.017135 0.090994  
2002-03-28 07:36:51 51°13.691 2°55.906 16.170275 0.017135 0.090994  
2002-03-28 07:36:56 51°13.691 2°55.906 16.170275 0.017135 0.090994  
2002-03-28 07:37:01 51°13.69 2°55.906 16.172071 0.017135 0.090994  
2002-03-28 07:37:06 51°13.689 2°55.905 16.172456 0.017135 0.090995  
2002-03-28 07:37:10 51°13.689 2°55.905 16.176219 0.017135 0.090995  
2002-03-28 07:37:16 51°13.689 2°55.905 16.175321 0.017135 0.090995  
2002-03-28 07:37:20 51°13.688 2°55.905 16.177416 0.017135 0.090995  
2002-03-28 07:37:26 51°13.688 2°55.905 16.177416 0.017135 0.090995  
2002-03-28 07:37:31 51°13.688 2°55.905 16.175834 0.017135 0.090995  
2002-03-28 07:37:36 51°13.688 2°55.905 16.176518 0.017135 0.090996  
2002-03-28 07:37:41 51°13.688 2°55.905 16.174722 0.017135 0.090996  
2002-03-28 07:37:46 51°13.688 2°55.905 16.175535 0.017135 0.090996  
2002-03-28 07:37:51 51°13.688 2°55.905 16.175022 0.017135 0.090996  
2002-03-28 07:37:55 51°13.688 2°55.905 16.175022 0.017135 0.090996  
2002-03-28 07:38:00 51°13.688 2°55.905 16.17066 0.017135 0.090997  
2002-03-28 07:38:05 51°13.688 2°55.905 16.170959 0.017135 0.090997  
2002-03-28 07:38:11 51°13.689 2°55.905 16.171558 0.017135 0.090998  
2002-03-28 07:38:16 51°13.688 2°55.905 16.174209 0.017135 0.090997  
2002-03-28 07:38:21 51°13.688 2°55.905 16.174295 0.017135 0.091  
2002-03-28 07:38:26 51°13.688 2°55.905 16.174295 0.017135 0.091  
2002-03-28 07:38:31 51°13.688 2°55.905 16.177416 0.017036 0.090497  
2002-03-28 07:38:36 51°13.688 2°55.905 16.178057 0.017135 0.091  
2002-03-28 07:38:41 51°13.687 2°55.905 16.182547 0.017135 0.091001  
2002-03-28 07:38:45 51°13.687 2°55.905 16.185369 0.017135 0.091001  
2002-03-28 07:38:49 51°13.687 2°55.905 16.184257 0.017135 0.091001  
2002-03-28 07:38:56 51°13.686 2°55.904 16.184257 0.017135 0.091001  
2002-03-28 07:39:01 51°13.687 2°55.904 16.184086 0.017135 0.091001  
2002-03-28 07:39:05 51°13.687 2°55.904 16.184855 0.017135 0.091002  
2002-03-28 07:39:09 51°13.687 2°55.904 16.186309 0.017135 0.091003  
2002-03-28 07:39:16 51°13.687 2°55.905 16.184086 0.017135 0.091005  
2002-03-28 07:39:21 51°13.687 2°55.905 16.1843 0.017135 0.091005  
2002-03-28 07:39:25 51°13.687 2°55.905 16.1843 0.017135 0.091005  
2002-03-28 07:39:31 51°13.687 2°55.905 16.183701 0.017135 0.091005  
2002-03-28 07:39:35 51°13.687 2°55.905 16.185497 0.017135 0.091006  
2002-03-28 07:39:41 51°13.688 2°55.905 16.183188 0.017135 0.091006  
2002-03-28 07:39:45 51°13.689 2°55.906 16.183445 0.017135 0.091006  
2002-03-28 07:39:51 51°13.689 2°55.906 16.183573 0.017036 0.090503  
2002-03-28 07:39:55 51°13.689 2°55.906 16.183573 0.017036 0.090503  
2002-03-28 07:40:01 51°13.689 2°55.906 16.183359 0.017135 0.091007  
2002-03-28 07:40:05 51°13.689 2°55.906 16.181734 0.017135 0.091008  
2002-03-28 07:40:11 51°13.689 2°55.906 16.182675 0.017135 0.091009  
2002-03-28 07:40:16 51°13.689 2°55.906 16.186694 0.017135 0.091009  
2002-03-28 07:40:21 51°13.689 2°55.905 16.190755 0.017135 0.091011  
2002-03-28 07:40:26 51°13.688 2°55.905 16.190755 0.017135 0.091011  
2002-03-28 07:40:31 51°13.688 2°55.905 16.192636 0.017135 0.091011  
2002-03-28 07:40:36 51°13.688 2°55.905 16.187934 0.017135 0.091012  
2002-03-28 07:40:41 51°13.688 2°55.905 16.189943 0.017135 0.091013  
2002-03-28 07:40:45 51°13.688 2°55.905 16.183402 0.017135 0.091013  
2002-03-28 07:40:51 51°13.687 2°55.905 16.188019 0.017135 0.091013  
2002-03-28 07:40:55 51°13.687 2°55.905 16.188019 0.017135 0.091013  
2002-03-28 07:41:01 51°13.688 2°55.905 16.185711 0.017036 0.09051  
2002-03-28 07:41:05 51°13.688 2°55.905 16.187335 0.017135 0.091014  
2002-03-28 07:41:11 51°13.688 2°55.905 16.183787 0.017135 0.091015  
2002-03-28 07:41:15 51°13.688 2°55.905 16.184086 0.017135 0.091017  
2002-03-28 07:41:21 51°13.688 2°55.905 16.18477 0.017135 0.091018  
2002-03-28 07:41:26 51°13.687 2°55.905 16.18477 0.017135 0.091018  
2002-03-28 07:41:30 51°13.687 2°55.905 16.179853 0.017135 0.091018  
2002-03-28 07:41:36 51°13.687 2°55.905 16.166127 0.017135 0.091019  
2002-03-28 07:41:41 51°13.687 2°55.905 16.153767 0.017135 0.09102  
2002-03-28 07:41:45 51°13.687 2°55.905 16.164801 0.017135 0.091021  
2002-03-28 07:41:51 51°13.688 2°55.905 16.166042 0.017135 0.091021  
2002-03-28 07:41:55 51°13.688 2°55.905 16.166042 0.017135 0.091021  
2002-03-28 07:42:00 51°13.688 2°55.905 16.166127 0.017135 0.091023  
2002-03-28 07:42:05 51°13.688 2°55.905 16.169848 0.017036 0.090518  
2002-03-28 07:42:10 51°13.688 2°55.905 16.178442 0.017135 0.091024  
2002-03-28 07:42:15 51°13.688 2°55.905 16.17562 0.017036 0.09052  
2002-03-28 07:42:20 51°13.688 2°55.905 16.178913 0.017036 0.090522  
2002-03-28 07:42:25 51°13.689 2°55.905 16.178913 0.017036 0.090522  
2002-03-28 07:42:32 51°13.689 2°55.905 16.18229 0.017135 0.091025  
2002-03-28 07:42:36 51°13.688 2°55.905 16.18601 0.017036 0.090523  
2002-03-28 07:42:41 51°13.688 2°55.905 16.194175 0.017036 0.090523  
2002-03-28 07:42:46 51°13.688 2°55.905 16.194987 0.017036 0.090524  
2002-03-28 07:42:51 51°13.688 2°55.905 16.192764 0.017135 0.09103  
2002-03-28 07:42:56 51°13.688 2°55.905 16.192764 0.017135 0.09103  
2002-03-28 07:43:01 51°13.687 2°55.905 16.189216 0.017036 0.090525  
2002-03-28 07:43:06 51°13.687 2°55.905 16.185369 0.017135 0.091031  
2002-03-28 07:43:11 51°13.687 2°55.905 16.184 0.017135 0.091031  
2002-03-28 07:43:16 51°13.687 2°55.905 16.185668 0.017135 0.091032  
2002-03-28 07:43:21 51°13.687 2°55.905 16.188404 0.017036 0.09053  
2002-03-28 07:43:26 51°13.687 2°55.905 16.188404 0.017036 0.09053  
2002-03-28 07:43:31 51°13.687 2°55.905 16.188233 0.017036 0.09053  
2002-03-28 07:43:36 51°13.687 2°55.905 16.190114 0.017135 0.091035  
2002-03-28 07:43:40 51°13.687 2°55.905 16.190969 0.017036 0.090531  
2002-03-28 07:43:45 51°13.687 2°55.905 16.190926 0.017036 0.090532  
2002-03-28 07:43:51 51°13.687 2°55.905 16.191952 0.017135 0.091037  
2002-03-28 07:43:55 51°13.687 2°55.905 16.191952 0.017135 0.091037  
2002-03-28 07:44:00 51°13.687 2°55.905 16.192166 0.017036 0.090535  
2002-03-28 07:44:05 51°13.687 2°55.905 16.194474 0.017135 0.09104  
2002-03-28 07:44:09 51°13.686 2°55.905 16.192337 0.017036 0.090536  
2002-03-28 07:44:15 51°13.686 2°55.904 16.192337 0.017036 0.090538  
2002-03-28 07:44:20 51°13.686 2°55.904 16.190926 0.017135 0.091043  
2002-03-28 07:44:25 51°13.686 2°55.904 16.190926 0.017135 0.091043  
2002-03-28 07:44:29 51°13.686 2°55.904 16.191268 0.017036 0.090538  
2002-03-28 07:44:35 51°13.686 2°55.904 16.189131 0.017135 0.091044  
2002-03-28 07:44:40 51°13.686 2°55.904 16.195586 0.017036 0.090541  
2002-03-28 07:44:45 51°13.686 2°55.904 16.194175 0.017135 0.091047  
2002-03-28 07:44:50 51°13.686 2°55.904 16.195372 0.017036 0.090543  
2002-03-28 07:44:55 51°13.686 2°55.904 16.195372 0.017036 0.090543  
2002-03-28 07:45:00 51°13.686 2°55.904 16.194987 0.017036 0.090543  
2002-03-28 07:45:05 51°13.686 2°55.904 16.195586 0.017036 0.090544  
2002-03-28 07:45:10 51°13.686 2°55.904 16.19627 0.017036 0.090546  
2002-03-28 07:45:15 51°13.686 2°55.904 16.196697 0.017036 0.090546  
2002-03-28 07:45:20 51°13.686 2°55.904 16.200501 0.017036 0.090547  
2002-03-28 07:45:25 51°13.686 2°55.904 16.200501 0.017036 0.090547  
2002-03-28 07:45:30 51°13.685 2°55.904 16.200929 0.017036 0.090547  
2002-03-28 07:45:35 51°13.685 2°55.904 16.204647 0.017036 0.09055  
2002-03-28 07:45:40 51°13.685 2°55.904 16.205459 0.017036 0.090549  
2002-03-28 07:45:45 51°13.685 2°55.904 16.208494 0.017036 0.09055  
2002-03-28 07:45:50 51°13.685 2°55.904 16.209178 0.017036 0.09055  
2002-03-28 07:45:55 51°13.685 2°55.904 16.209178 0.017036 0.09055  
2002-03-28 07:46:01 51°13.685 2°55.904 16.219947 0.017036 0.090552  
2002-03-28 07:46:05 51°13.686 2°55.904 16.23144 0.017036 0.090552  
2002-03-28 07:46:11 51°13.686 2°55.903 16.253226 0.017036 0.090553  
2002-03-28 07:46:15 51°13.686 2°55.901 16.256173 0.017036 0.090555  
2002-03-28 07:46:20 51°13.687 2°55.899 16.175791 0.017036 0.090555  
2002-03-28 07:46:25 51°13.688 2°55.895 16.175791 0.017036 0.090555  
2002-03-28 07:46:31 51°13.689 2°55.89 16.169035 0.017036 0.090556  
2002-03-28 07:46:36 51°13.69 2°55.884 16.172884 0.017036 0.090558  
2002-03-28 07:46:41 51°13.691 2°55.878 16.18135 0.017036 0.090558  
2002-03-28 07:46:46 51°13.692 2°55.872 16.167752 0.017036 0.090558  
2002-03-28 07:46:51 51°13.693 2°55.866 16.176903 0.017036 0.09056  
2002-03-28 07:46:56 51°13.694 2°55.858 16.176903 0.017036 0.09056  
2002-03-28 07:47:01 51°13.695 2°55.851 16.18259 0.017036 0.09056  
2002-03-28 07:47:06 51°13.696 2°55.843 16.178015 0.017036 0.090561  
2002-03-28 07:47:11 51°13.697 2°55.835 16.172199 0.017036 0.090561  
2002-03-28 07:47:16 51°13.698 2°55.828 16.170275 0.017036 0.090562  
2002-03-28 07:47:21 51°13.699 2°55.821 16.169676 0.017036 0.090562  
2002-03-28 07:47:26 51°13.699 2°55.814 16.169676 0.017036 0.090562  
2002-03-28 07:47:30 51°13.699 2°55.809 16.191525 0.017036 0.090564  
2002-03-28 07:47:35 51°13.7 2°55.801 16.189943 0.017036 0.090565  
2002-03-28 07:47:40 51°13.7 2°55.794 16.192764 0.017036 0.090565  
2002-03-28 07:47:46 51°13.7 2°55.785 16.192337 0.017036 0.090566  
2002-03-28 07:47:51 51°13.701 2°55.778 16.193876 0.017036 0.090567  
2002-03-28 07:47:57 51°13.701 2°55.769 16.193876 0.017036 0.090567  
2002-03-28 07:48:01 51°13.701 2°55.764 16.189002 0.017036 0.090567  
2002-03-28 07:48:06 51°13.7 2°55.758 16.181649 0.017036 0.090568  
2002-03-28 07:48:11 51°13.7 2°55.751 16.18105 0.017036 0.09057  
2002-03-28 07:48:16 51°13.7 2°55.745 16.1843 0.017036 0.09057  
2002-03-28 07:48:20 51°13.7 2°55.74 16.187292 0.017036 0.090572  
2002-03-28 07:48:25 51°13.699 2°55.735 16.187292 0.017036 0.090572  
2002-03-28 07:48:30 51°13.699 2°55.73 16.204733 0.017036 0.090572  
2002-03-28 07:48:35 51°13.698 2°55.724 16.205288 0.017036 0.090572  
2002-03-28 07:48:40 51°13.698 2°55.72 16.217126 0.017036 0.090574  
2002-03-28 07:48:45 51°13.698 2°55.717 16.13533 0.017036 0.090574  
2002-03-28 07:48:51 51°13.699 2°55.716 16.06667 0.017036 0.090576  
2002-03-28 07:48:55 51°13.7 2°55.716 16.06667 0.017036 0.090576  
2002-03-28 07:49:00 51°13.702 2°55.718 16.047909 0.017036 0.090576  
2002-03-28 07:49:05 51°13.706 2°55.721 16.031971 0.017036 0.090577  
2002-03-28 07:49:10 51°13.71 2°55.723 16.023658 0.017036 0.090578  
2002-03-28 07:49:15 51°13.716 2°55.724 16.0105 0.017036 0.090579  
2002-03-28 07:49:20 51°13.722 2°55.724 16.0279 0.017036 0.090579  
2002-03-28 07:49:25 51°13.728 2°55.722 16.0279 0.017036 0.090579  
2002-03-28 07:49:31 51°13.737 2°55.718 16.086838 0.017036 0.090579  
2002-03-28 07:49:35 51°13.742 2°55.715 16.191225 0.017036 0.09058  
2002-03-28 07:49:40 51°13.75 2°55.709 16.263561 0.017036 0.09058  
2002-03-28 07:49:45 51°13.758 2°55.702 16.278933 0.017036 0.090582  
2002-03-28 07:49:50 51°13.767 2°55.695 16.28333 0.017036 0.090582  
2002-03-28 07:49:55 51°13.777 2°55.687 16.28333 0.017036 0.090582  
2002-03-28 07:50:00 51°13.786 2°55.679 16.26796 0.017036 0.090583  
2002-03-28 07:50:05 51°13.796 2°55.67 16.257668 0.017036 0.090583  
2002-03-28 07:50:11 51°13.807 2°55.659 16.264373 0.017036 0.090583  
2002-03-28 07:50:15 51°13.816 2°55.652 16.260785 0.017036 0.090584  
2002-03-28 07:50:20 51°13.826 2°55.642 16.276713 0.017036 0.090585  
2002-03-28 07:50:25 51°13.837 2°55.634 16.276713 0.017036 0.090585  
2002-03-28 07:50:29 51°13.847 2°55.626 16.281622 0.017036 0.090586  
2002-03-28 07:50:35 51°13.86 2°55.616 16.279957 0.017036 0.090586  
2002-03-28 07:50:40 51°13.872 2°55.608 16.281964 0.017036 0.090588  
2002-03-28 07:50:45 51°13.883 2°55.599 16.264159 0.017036 0.090589  
2002-03-28 07:50:51 51°13.897 2°55.588 16.263177 0.017036 0.090589  
2002-03-28 07:50:55 51°13.907 2°55.581 16.263177 0.017036 0.090589  
2002-03-28 07:51:00 51°13.919 2°55.573 16.266209 0.017036 0.09059  
2002-03-28 07:51:05 51°13.931 2°55.564 16.278335 0.017036 0.090591  
2002-03-28 07:51:11 51°13.945 2°55.554 16.293789 0.017036 0.090592  
2002-03-28 07:51:15 51°13.954 2°55.547 16.270692 0.017036 0.090594  
2002-03-28 07:51:20 51°13.966 2°55.538 16.311501 0.017036 0.090592  
2002-03-28 07:51:25 51°13.978 2°55.53 16.311501 0.017036 0.090592  
2002-03-28 07:51:30 51°13.989 2°55.521 16.309964 0.017036 0.090595  
2002-03-28 07:51:35 51°14 2°55.514 16.30527 0.017036 0.090596  
2002-03-28 07:51:40 51°14.01 2°55.506 16.281537 0.017036 0.090596  
2002-03-28 07:51:45 51°14.02 2°55.498 16.286788 0.017036 0.090597  
2002-03-28 07:51:51 51°14.032 2°55.49 16.289691 0.017036 0.090597  
2002-03-28 07:51:56 51°14.041 2°55.483 16.289691 0.017036 0.090597  
2002-03-28 07:52:00 51°14.049 2°55.478 16.276841 0.017036 0.090598  
2002-03-28 07:52:05 51°14.058 2°55.471 16.264287 0.017036 0.090598  
2002-03-28 07:52:10 51°14.066 2°55.464 16.2484 0.017036 0.090601  
2002-03-28 07:52:15 51°14.075 2°55.458 16.235841 0.017036 0.090602  
2002-03-28 07:52:20 51°14.083 2°55.451 16.25455 0.017036 0.090602  
2002-03-28 07:52:25 51°14.091 2°55.444 16.25455 0.017036 0.090602  
2002-03-28 07:52:31 51°14.101 2°55.436 16.232338 0.017036 0.090602  
2002-03-28 07:52:36 51°14.11 2°55.429 16.21734 0.017036 0.090603  
2002-03-28 07:52:40 51°14.117 2°55.423 16.231697 0.017036 0.090604  
2002-03-28 07:52:45 51°14.125 2°55.416 16.257198 0.017036 0.090606  
2002-03-28 07:52:50 51°14.134 2°55.409 16.231996 0.017036 0.090606  
2002-03-28 07:52:55 51°14.144 2°55.401 16.231996 0.017036 0.090606  
2002-03-28 07:53:01 51°14.155 2°55.391 16.199005 0.017036 0.090607  
2002-03-28 07:53:05 51°14.163 2°55.384 16.194944 0.017036 0.090607  
2002-03-28 07:53:10 51°14.173 2°55.374 16.208707 0.017036 0.090609  
2002-03-28 07:53:15 51°14.184 2°55.364 16.260273 0.017036 0.090609  
2002-03-28 07:53:20 51°14.194 2°55.354 16.235542 0.017036 0.090609  
2002-03-28 07:53:25 51°14.204 2°55.342 16.235542 0.017036 0.090609  
2002-03-28 07:53:30 51°14.215 2°55.329 16.209819 0.017036 0.09061  
2002-03-28 07:53:35 51°14.225 2°55.316 16.201442 0.017036 0.090612  
2002-03-28 07:53:40 51°14.234 2°55.302 16.234687 0.017036 0.090612  
2002-03-28 07:53:45 51°14.244 2°55.287 16.22751 0.017036 0.090613  
2002-03-28 07:53:51 51°14.255 2°55.268 16.262067 0.017036 0.090614  
2002-03-28 07:53:55 51°14.262 2°55.256 16.262067 0.017036 0.090614  
2002-03-28 07:54:00 51°14.271 2°55.24 16.30958 0.017036 0.090614  
2002-03-28 07:54:05 51°14.279 2°55.224 16.291911 0.017036 0.090615  
2002-03-28 07:54:09 51°14.286 2°55.21 16.284739 0.017036 0.090615  
2002-03-28 07:54:15 51°14.297 2°55.19 16.284184 0.017036 0.090616  
2002-03-28 07:54:20 51°14.306 2°55.173 16.272785 0.017036 0.090616  
2002-03-28 07:54:25 51°14.314 2°55.156 16.272785 0.017036 0.090616  
2002-03-28 07:54:30 51°14.322 2°55.139 16.27082 0.017036 0.090619  
2002-03-28 07:54:35 51°14.33 2°55.121 16.270607 0.017036 0.090618  
2002-03-28 07:54:40 51°14.338 2°55.103 16.258052 0.017036 0.09062  
2002-03-28 07:54:44 51°14.345 2°55.089 16.262664 0.017036 0.09062  
2002-03-28 07:54:50 51°14.355 2°55.068 16.237934 0.017036 0.090621  
2002-03-28 07:54:55 51°14.364 2°55.05 16.237934 0.017036 0.090621  
2002-03-28 07:55:00 51°14.372 2°55.031 16.204989 0.017036 0.090621  
2002-03-28 07:55:05 51°14.38 2°55.011 16.189729 0.017036 0.090622  
2002-03-28 07:55:09 51°14.385 2°54.994 16.188532 0.017036 0.090624  
2002-03-28 07:55:15 51°14.393 2°54.969 16.192978 0.017036 0.090625  
2002-03-28 07:55:20 51°14.4 2°54.947 16.149404 0.017036 0.090626  
2002-03-28 07:55:25 51°14.406 2°54.925 16.149404 0.017036 0.090626  
2002-03-28 07:55:31 51°14.411 2°54.897 16.165015 0.017036 0.090627  
2002-03-28 07:55:35 51°14.413 2°54.877 16.184086 0.017036 0.090628  
2002-03-28 07:55:40 51°14.415 2°54.853 16.232679 0.017036 0.090627  
2002-03-28 07:55:45 51°14.417 2°54.828 16.229176 0.017036 0.09063  
2002-03-28 07:55:51 51°14.418 2°54.797 16.194047 0.017036 0.090631  
2002-03-28 07:55:55 51°14.418 2°54.777 16.194047 0.017036 0.090631  
2002-03-28 07:56:00 51°14.419 2°54.75 16.256899 0.017036 0.09063  
2002-03-28 07:56:05 51°14.419 2°54.725 16.754387 0.017036 0.090632  
2002-03-28 07:56:09 51°14.419 2°54.704 16.219989 0.017036 0.090632  
2002-03-28 07:56:15 51°14.418 2°54.672 16.222639 0.017036 0.090633  
2002-03-28 07:56:20 51°14.417 2°54.646 16.237336 0.017036 0.090634  
2002-03-28 07:56:25 51°14.415 2°54.62 16.237336 0.017036 0.090634  
2002-03-28 07:56:31 51°14.412 2°54.588 16.228791 0.017036 0.090634  
2002-03-28 07:56:35 51°14.409 2°54.567 16.218152 0.017036 0.090636  
2002-03-28 07:56:41 51°14.404 2°54.536 16.224732 0.017036 0.090637  
2002-03-28 07:56:45 51°14.4 2°54.515 16.230671 0.017036 0.090637  
2002-03-28 07:56:51 51°14.393 2°54.485 16.23238 0.017036 0.090639  
2002-03-28 07:56:55 51°14.388 2°54.465 16.23238 0.017036 0.090639  
2002-03-28 07:56:59 51°14.384 2°54.445 16.238319 0.017036 0.090639  
2002-03-28 07:57:05 51°14.377 2°54.415 16.245666 0.017036 0.09064  
2002-03-28 07:57:11 51°14.368 2°54.385 16.267874 0.017036 0.090642  
2002-03-28 07:57:15 51°14.363 2°54.365 16.264757 0.017036 0.090642  
2002-03-28 07:57:20 51°14.356 2°54.34 16.260059 0.017036 0.090643  
2002-03-28 07:57:25 51°14.349 2°54.314 16.260059 0.017036 0.090643  
2002-03-28 07:57:31 51°14.341 2°54.284 16.243445 0.017036 0.090643  
2002-03-28 07:57:35 51°14.336 2°54.263 16.275645 0.017036 0.090644  
2002-03-28 07:57:40 51°14.329 2°54.237 16.243487 0.017036 0.090645  
2002-03-28 07:57:45 51°14.322 2°54.21 16.253141 0.017036 0.090647  
2002-03-28 07:57:51 51°14.313 2°54.179 16.246093 0.017036 0.090647  
2002-03-28 07:57:55 51°14.308 2°54.158 16.246093 0.017036 0.090647  
2002-03-28 07:58:00 51°14.301 2°54.131 16.252842 0.017036 0.090648  
2002-03-28 07:58:05 51°14.295 2°54.104 16.257454 0.017036 0.09065  
2002-03-28 07:58:10 51°14.287 2°54.077 16.263262 0.017036 0.09065  
2002-03-28 07:58:15 51°14.28 2°54.05 16.246777 0.017036 0.090651  
2002-03-28 07:58:20 51°14.273 2°54.023 16.2686 0.017036 0.090653  
2002-03-28 07:58:25 51°14.266 2°53.996 16.2686 0.017036 0.090653  
2002-03-28 07:58:31 51°14.258 2°53.963 16.28444 0.017036 0.090653  
2002-03-28 07:58:35 51°14.252 2°53.941 16.244683 0.017036 0.090655  
2002-03-28 07:58:40 51°14.246 2°53.914 12.864661 0.017036 0.090721  
2002-03-28 07:58:45 51°14.238 2°53.887 10.8434 0.017036 0.090895  
2002-03-28 07:58:51 51°14.23 2°53.853 10.22445 0.033506 0.179746  
2002-03-28 07:58:55 51°14.224 2°53.831 10.22445 0.033506 0.179746  
2002-03-28 07:59:00 51°14.217 2°53.802 9.786002 4.006581 29.636248  
2002-03-28 07:59:05 51°14.21 2°53.774 9.615153 3.81835 28.494268  
2002-03-28 07:59:11 51°14.202 2°53.739 9.400415 3.830103 30.151966  
2002-03-28 07:59:15 51°14.196 2°53.716 9.296525 3.850264 31.309153  
2002-03-28 07:59:20 51°14.189 2°53.687 9.331363 3.544039 29.642134  
2002-03-28 07:59:25 51°14.181 2°53.658 9.331363 3.544039 29.642134  
2002-03-28 07:59:29 51°14.175 2°53.635 9.2032 3.42874 29.339678  
2002-03-28 07:59:35 51°14.166 2°53.6 9.072879 3.371549 29.273602  
2002-03-28 07:59:40 51°14.157 2°53.571 9.165775 3.365945 29.604289  
2002-03-28 07:59:45 51°14.149 2°53.543 8.985901 3.348621 29.746633  
2002-03-28 07:59:51 51°14.138 2°53.509 8.946348 3.347923 29.94707  
2002-03-28 07:59:55 51°14.13 2°53.487 8.946348 3.347923 29.94707  
2002-03-28 08:00:00 51°14.12 2°53.46 8.909204 3.340313 30.054623  
2002-03-28 08:00:05 51°14.109 2°53.433 8.963411 3.326392 30.030065  
2002-03-28 08:00:11 51°14.097 2°53.4 8.901 3.312972 30.029448  
2002-03-28 08:00:15 51°14.089 2°53.377 8.847647 3.298551 29.965176  
2002-03-28 08:00:20 51°14.079 2°53.35 8.834851 3.302958 30.066715  
2002-03-28 08:00:25 51°14.069 2°53.322 8.834851 3.302958 30.066715  
2002-03-28 08:00:31 51°14.058 2°53.287 8.814793 3.299053 30.088784  
2002-03-28 08:00:35 51°14.05 2°53.265 8.890839 3.291442 30.061809  
2002-03-28 08:00:40 51°14.04 2°53.237 8.81785 3.288137 30.053713  
2002-03-28 08:00:45 51°14.03 2°53.208 8.85624 3.292644 30.129579  
2002-03-28 08:00:51 51°14.019 2°53.174 8.812309 3.282429 30.060377  
2002-03-28 08:00:55 51°14.011 2°53.151 8.812309 3.282429 30.060377  
2002-03-28 08:01:00 51°14.001 2°53.123 8.836427 3.275419 30.017415  
2002-03-28 08:01:05 51°13.991 2°53.094 8.847313 3.270311 29.994411  
2002-03-28 08:01:10 51°13.981 2°53.066 8.817325 3.274918 30.057045  
2002-03-28 08:01:15 51°13.972 2°53.037 8.884541 3.285034 30.171643  
2002-03-28 08:01:20 51°13.962 2°53.009 8.786558 3.283732 30.1667  
2002-03-28 08:01:25 51°13.952 2°52.981 8.786558 3.283732 30.1667  
2002-03-28 08:01:30 51°13.942 2°52.952 8.808727 3.277723 30.111781  
2002-03-28 08:01:35 51°13.932 2°52.923 8.78522 3.274017 30.084435  
2002-03-28 08:01:40 51°13.922 2°52.895 8.906008 3.272716 30.075328  
2002-03-28 08:01:45 51°13.913 2°52.865 8.780775 3.286637 30.219827  
2002-03-28 08:01:49 51°13.905 2°52.843 8.818041 3.286437 30.217093  
2002-03-28 08:01:55 51°13.893 2°52.808 8.818041 3.286437 30.217093  
2002-03-28 08:02:00 51°13.883 2°52.779 8.781158 3.284534 30.203955  
2002-03-28 08:02:04 51°13.875 2°52.756 8.870177 3.305767 30.428712  
2002-03-28 08:02:10 51°13.863 2°52.722 8.774228 3.309072 30.467321  
2002-03-28 08:02:15 51°13.852 2°52.694 8.78025 3.305967 30.445444  
2002-03-28 08:02:20 51°13.842 2°52.665 8.825205 3.309974 30.493334  
2002-03-28 08:02:25 51°13.833 2°52.636 8.825205 3.309974 30.493334  
2002-03-28 08:02:29 51°13.825 2°52.613 8.777143 3.316484 30.560499  
2002-03-28 08:02:35 51°13.813 2°52.578 8.862923 3.31378 30.543423  
2002-03-28 08:02:40 51°13.804 2°52.548 8.859629 3.318688 30.597071  
2002-03-28 08:02:45 51°13.794 2°52.52 8.893749 3.318988 30.597325  
2002-03-28 08:02:50 51°13.784 2°52.491 8.818805 3.321793 30.631613  
2002-03-28 08:02:55 51°13.774 2°52.462 8.818805 3.321793 30.631613  
2002-03-28 08:03:00 51°13.764 2°52.433 8.78154 3.324096 30.653744  
2002-03-28 08:03:05 51°13.754 2°52.404 8.858293 3.31979 30.614666  
2002-03-28 08:03:09 51°13.746 2°52.381 8.784885 3.3266 30.687102  
2002-03-28 08:03:15 51°13.734 2°52.346 8.855095 3.325799 30.683853  
2002-03-28 08:03:20 51°13.724 2°52.317 8.818232 3.329105 30.717651  
2002-03-28 08:03:25 51°13.714 2°52.289 8.818232 3.329105 30.717651  
2002-03-28 08:03:30 51°13.704 2°52.26 8.80973 3.330206 30.733162  
2002-03-28 08:03:35 51°13.694 2°52.231 8.867648 3.331909 30.751994  
2002-03-28 08:03:40 51°13.684 2°52.202 8.861777 3.33231 30.758925  
2002-03-28 08:03:45 51°13.674 2°52.173 8.82019 3.327702 30.711795  
2002-03-28 08:03:49 51°13.666 2°52.149 8.779485 3.330908 30.748828  
2002-03-28 08:03:55 51°13.654 2°52.115 8.779485 3.330908 30.748828  
2002-03-28 08:04:00 51°13.645 2°52.085 8.818375 3.334413 30.786825  
2002-03-28 08:04:05 51°13.635 2°52.056 8.776283 3.334814 30.790925  
2002-03-28 08:04:10 51°13.625 2°52.027 8.781444 3.333412 30.778702  
2002-03-28 08:04:15 51°13.615 2°51.998 8.853376 3.327302 30.716184  
2002-03-28 08:04:20 51°13.605 2°51.969 8.856097 3.33221 30.764985  
2002-03-28 08:04:25 51°13.595 2°51.94 8.856097 3.33221 30.764985  
2002-03-28 08:04:29 51°13.587 2°51.917 8.783643 3.336216 30.809533  
2002-03-28 08:04:35 51°13.575 2°51.882 8.785363 3.331008 30.760479  
2002-03-28 08:04:40 51°13.566 2°51.853 8.852183 3.337018 30.822705  
2002-03-28 08:04:45 51°13.556 2°51.823 8.90949 3.332611 30.7783  
2002-03-28 08:04:50 51°13.546 2°51.795 8.822531 3.331108 30.765048  
2002-03-28 08:04:55 51°13.536 2°51.765 8.822531 3.331108 30.765048  
2002-03-28 08:05:00 51°13.526 2°51.737 8.827354 3.334313 30.797858  
2002-03-28 08:05:05 51°13.516 2°51.707 8.791097 3.333212 30.787998  
2002-03-28 08:05:10 51°13.506 2°51.678 8.828405 3.336116 30.818447  
2002-03-28 08:05:15 51°13.496 2°51.649 8.792578 3.333913 30.795886  
2002-03-28 08:05:20 51°13.486 2°51.62 8.837573 3.338821 30.844717  
2002-03-28 08:05:26 51°13.474 2°51.585 8.837573 3.338821 30.844717  
2002-03-28 08:05:30 51°13.466 2°51.562 8.844878 3.337118 30.827282  
2002-03-28 08:05:35 51°13.456 2°51.532 8.846024 3.338821 30.844717  
2002-03-28 08:05:40 51°13.446 2°51.503 8.809252 3.340423 30.861128  
2002-03-28 08:05:45 51°13.436 2°51.474 8.925037 3.340924 30.865545  
2002-03-28 08:05:51 51°13.425 2°51.439 8.862827 3.342827 30.882188  
2002-03-28 08:05:55 51°13.416 2°51.416 8.862827 3.342827 30.882188  
2002-03-28 08:06:00 51°13.407 2°51.387 8.812978 3.346433 30.920541  
2002-03-28 08:06:05 51°13.397 2°51.358 8.820716 3.350139 30.954225  
2002-03-28 08:06:10 51°13.387 2°51.328 8.817325 3.345932 30.909002  
2002-03-28 08:06:15 51°13.377 2°51.299 8.896945 3.353044 30.981125  
2002-03-28 08:06:20 51°13.367 2°51.27 8.829981 3.34463 30.892822  
2002-03-28 08:06:25 51°13.357 2°51.242 8.829981 3.34463 30.892822  
2002-03-28 08:06:30 51°13.347 2°51.212 8.871991 3.351441 30.961143  
2002-03-28 08:06:35 51°13.337 2°51.183 8.869032 3.353144 30.975729  
2002-03-28 08:06:40 51°13.327 2°51.154 8.835568 3.359454 31.038934  
2002-03-28 08:06:45 51°13.317 2°51.125 8.839292 3.363761 31.083774  
2002-03-28 08:06:51 51°13.305 2°51.089 8.845356 3.368369 31.130988  
2002-03-28 08:06:55 51°13.298 2°51.066 8.845356 3.368369 31.130988  
2002-03-28 08:07:01 51°13.286 2°51.031 8.880914 3.361457 31.05731  
2002-03-28 08:07:05 51°13.278 2°51.007 8.851132 3.36897 31.134279  
2002-03-28 08:07:10 51°13.267 2°50.978 8.857386 3.370573 31.14855  
2002-03-28 08:07:15 51°13.257 2°50.949 8.849796 3.376683 31.209016  
2002-03-28 08:07:20 51°13.247 2°50.92 8.853949 3.37478 31.188074  
2002-03-28 08:07:25 51°13.236 2°50.891 8.853949 3.37478 31.188074  
2002-03-28 08:07:30 51°13.227 2°50.862 8.852039 3.367868 31.11439  
2002-03-28 08:07:35 51°13.217 2°50.833 8.866168 3.382192 31.259011  
2002-03-28 08:07:40 51°13.207 2°50.804 8.891363 3.382893 31.263319  
2002-03-28 08:07:45 51°13.197 2°50.775 8.93033 3.379888 31.228928  
2002-03-28 08:07:49 51°13.189 2°50.751 8.85562 3.382893 31.260441  
2002-03-28 08:07:55 51°13.177 2°50.717 8.85562 3.382893 31.260441  
2002-03-28 08:08:00 51°13.167 2°50.687 8.858293 3.384195 31.272347  
2002-03-28 08:08:05 51°13.158 2°50.658 8.865643 3.382593 31.256642  
2002-03-28 08:08:10 51°13.148 2°50.629 8.865834 3.383694 31.267214  
2002-03-28 08:08:15 51°13.138 2°50.6 8.909681 3.383394 31.261976  
2002-03-28 08:08:20 51°13.129 2°50.571 8.873327 3.381891 31.24658  
2002-03-28 08:08:25 51°13.119 2°50.542 8.873327 3.381891 31.24658  
2002-03-28 08:08:29 51°13.111 2°50.518 8.906628 3.380689 31.235701  
2002-03-28 08:08:35 51°13.099 2°50.483 8.91073 3.389705 31.326652  
2002-03-28 08:08:40 51°13.089 2°50.454 8.953498 3.378886 31.215072  
2002-03-28 08:08:45 51°13.079 2°50.424 8.984805 3.392209 31.349437  
2002-03-28 08:08:51 51°13.068 2°50.389 8.952688 3.394613 31.371193  
2002-03-28 08:08:55 51°13.059 2°50.367 8.952688 3.394613 31.371193  
2002-03-28 08:09:00 51°13.05 2°50.337 8.913592 3.392609 31.349937  
2002-03-28 08:09:05 51°13.039 2°50.308 8.910015 3.384395 31.265046  
2002-03-28 08:09:10 51°13.029 2°50.279 8.873613 3.390706 31.331151  
2002-03-28 08:09:15 51°13.02 2°50.249 8.867791 3.397418 31.397055  
2002-03-28 08:09:20 51°13.009 2°50.22 8.9155 3.395915 31.382375  
2002-03-28 08:09:25 51°12.999 2°50.191 8.9155 3.395915 31.382375  
2002-03-28 08:09:30 51°12.989 2°50.161 8.918361 3.399621 31.42037  
2002-03-28 08:09:35 51°12.979 2°50.132 8.91736 3.397317 31.397473  
2002-03-28 08:09:40 51°12.969 2°50.103 8.873709 3.395715 31.381766  
2002-03-28 08:09:45 51°12.96 2°50.074 8.876811 3.399221 31.417708  
2002-03-28 08:09:51 51°12.948 2°50.039 8.919076 3.392509 31.351074  
2002-03-28 08:09:55 51°12.939 2°50.016 8.919076 3.392509 31.351074  
2002-03-28 08:10:00 51°12.929 2°49.987 8.918218 3.399822 31.42387  
2002-03-28 08:10:05 51°12.918 2°49.958 8.876667 3.393912 31.362562  
2002-03-28 08:10:10 51°12.908 2°49.929 8.981327 3.402426 31.449127  
2002-03-28 08:10:15 51°12.898 2°49.9 8.944871 3.394012 31.363589  
2002-03-28 08:10:20 51°12.888 2°49.871 8.902717 3.398319 31.406297  
2002-03-28 08:10:25 51°12.878 2°49.842 8.902717 3.398319 31.406297  
2002-03-28 08:10:30 51°12.868 2°49.813 8.865118 3.397518 31.39736  
2002-03-28 08:10:35 51°12.857 2°49.784 8.905627 3.398219 31.403825  
2002-03-28 08:10:39 51°12.849 2°49.761 8.898758 3.396216 31.385456  
2002-03-28 08:10:45 51°12.837 2°49.726 8.982852 3.400523 31.431782  
2002-03-28 08:10:50 51°12.826 2°49.697 8.862398 3.393311 31.362175  
2002-03-28 08:10:55 51°12.816 2°49.668 8.862398 3.393311 31.362175  
2002-03-28 08:11:00 51°12.806 2°49.639 8.914021 3.405632 31.491416  
2002-03-28 08:11:05 51°12.796 2°49.61 8.871179 3.405532 31.491838  
2002-03-28 08:11:11 51°12.784 2°49.575 8.861443 3.401925 31.454848  
2002-03-28 08:11:15 51°12.776 2°49.552 8.942344 3.400423 31.441608  
2002-03-28 08:11:20 51°12.766 2°49.523 8.98552 3.402026 31.458047  
2002-03-28 08:11:25 51°12.756 2°49.494 8.98552 3.402026 31.458047  
2002-03-28 08:11:31 51°12.744 2°49.458 8.944346 3.405331 31.492683  
2002-03-28 08:11:35 51°12.736 2°49.435 8.908679 3.403929 31.478296  
2002-03-28 08:11:39 51°12.727 2°49.412 8.907344 3.405331 31.489783  
2002-03-28 08:11:45 51°12.715 2°49.377 8.864068 3.393611 31.371753  
2002-03-28 08:11:51 51°12.703 2°49.341 8.860775 3.400723 31.446138  
2002-03-28 08:11:55 51°12.695 2°49.318 8.860775 3.400723 31.446138  
2002-03-28 08:12:00 51°12.685 2°49.289 8.972227 3.403729 31.47769  
2002-03-28 08:12:05 51°12.675 2°49.26 8.861443 3.401024 31.450668  
2002-03-28 08:12:10 51°12.665 2°49.23 8.934526 3.400924 31.450365  
2002-03-28 08:12:15 51°12.655 2°49.201 8.894608 3.394313 31.382555  
2002-03-28 08:12:20 51°12.645 2°49.172 8.85815 3.40473 31.490141  
2002-03-28 08:12:25 51°12.634 2°49.143 8.85815 3.40473 31.490141  
2002-03-28 08:12:29 51°12.626 2°49.12 8.856288 3.404831 31.491894  
2002-03-28 08:12:35 51°12.614 2°49.085 8.981042 3.402827 31.471339  
2002-03-28 08:12:40 51°12.603 2°49.056 8.901859 3.405932 31.505377  
2002-03-28 08:12:45 51°12.593 2°49.027 8.867886 3.404831 31.494795  
2002-03-28 08:12:50 51°12.583 2°48.998 8.937958 3.401224 31.459242  
2002-03-28 08:12:55 51°12.573 2°48.969 8.937958 3.401224 31.459242  
2002-03-28 08:13:00 51°12.562 2°48.94 8.909776 3.396617 31.413416  
2002-03-28 08:13:05 51°12.552 2°48.911 8.858531 3.397017 31.417526  
2002-03-28 08:13:10 51°12.542 2°48.882 8.862923 3.394713 31.393892  
2002-03-28 08:13:15 51°12.532 2°48.852 8.852851 3.402126 31.467768  
2002-03-28 08:13:20 51°12.522 2°48.823 8.888024 3.396817 31.412577  
2002-03-28 08:13:25 51°12.512 2°48.794 8.888024 3.396817 31.412577  
2002-03-28 08:13:30 51°12.502 2°48.765 8.888883 3.402226 31.466622  
2002-03-28 08:13:35 51°12.492 2°48.736 8.892795 3.394813 31.391305  
2002-03-28 08:13:40 51°12.482 2°48.707 8.935908 3.401825 31.46396  
2002-03-28 08:13:45 51°12.471 2°48.678 8.927803 3.396817 31.413301  
2002-03-28 08:13:49 51°12.464 2°48.655 8.859725 3.404129 31.492676  
2002-03-28 08:13:55 51°12.451 2°48.62 8.859725 3.404129 31.492676  
2002-03-28 08:14:00 51°12.441 2°48.591 9.044185 3.405131 31.504407  
2002-03-28 08:14:05 51°12.431 2°48.562 8.850178 3.396116 31.414789  
2002-03-28 08:14:10 51°12.421 2°48.534 8.848507 3.392309 31.377181  
2002-03-28 08:14:15 51°12.41 2°48.505 8.891411 3.395615 31.41182  
2002-03-28 08:14:20 51°12.401 2°48.476 8.851705 3.402326 31.479972  
2002-03-28 08:14:25 51°12.39 2°48.447 8.851705 3.402326 31.479972  
2002-03-28 08:14:29 51°12.383 2°48.423 8.884398 3.399622 31.454387  
2002-03-28 08:14:35 51°12.37 2°48.389 8.886688 3.393712 31.392292  
2002-03-28 08:14:40 51°12.36 2°48.36 8.882918 3.392309 31.380072  
2002-03-28 08:14:45 51°12.349 2°48.331 8.928232 3.396416 31.420767  
2002-03-28 08:14:50 51°12.339 2°48.303 8.851848 3.396717 31.426023  
2002-03-28 08:14:55 51°12.328 2°48.275 8.851848 3.396717 31.426023  
2002-03-28 08:15:00 51°12.317 2°48.246 8.848841 3.395615 31.415439  
2002-03-28 08:15:05 51°12.306 2°48.218 8.849366 3.391207 31.368045  
2002-03-28 08:15:11 51°12.293 2°48.184 8.890505 3.402427 31.486802  
2002-03-28 08:15:15 51°12.285 2°48.161 8.937672 3.391508 31.374741  
2002-03-28 08:15:20 51°12.274 2°48.133 8.84316 3.396116 31.422026  
2002-03-28 08:15:25 51°12.263 2°48.105 8.84316 3.396116 31.422026  
2002-03-28 08:15:30 51°12.252 2°48.076 8.918409 3.397418 31.43684  
2002-03-28 08:15:35 51°12.242 2°48.048 9.73648 3.401425 31.477244  
2002-03-28 08:15:40 51°12.231 2°48.019 9.693471 3.397017 31.432727  
2002-03-28 08:15:45 51°12.22 2°47.991 9.620154 3.399622 31.458736  
2002-03-28 08:15:50 51°12.21 2°47.962 9.459321 3.392309 31.382241  
2002-03-28 08:15:55 51°12.199 2°47.934 9.459321 3.392309 31.382241  
2002-03-28 08:16:00 51°12.188 2°47.906 9.497948 3.397719 31.437751  
2002-03-28 08:16:05 51°12.178 2°47.877 9.760869 3.399321 31.459275  
2002-03-28 08:16:10 51°12.167 2°47.849 9.764305 3.400223 31.470706  
2002-03-28 08:16:15 51°12.156 2°47.821 9.878636 3.394413 31.411787  
2002-03-28 08:16:20 51°12.146 2°47.792 9.721692 3.394714 31.415596  
2002-03-28 08:16:26 51°12.133 2°47.758 9.721692 3.394714 31.415596  
2002-03-28 08:16:30 51°12.125 2°47.735 10.143819 3.402527 31.497991  
2002-03-28 08:16:35 51°12.114 2°47.707 10.106417 3.404631 31.518868  
2002-03-28 08:16:40 51°12.104 2°47.678 9.761952 3.405432 31.532186  
2002-03-28 08:16:45 51°12.093 2°47.65 9.796683 3.406434 31.542475  
2002-03-28 08:16:51 51°12.081 2°47.616 9.804539 3.405733 31.536726  
2002-03-28 08:16:55 51°12.072 2°47.593 9.804539 3.405733 31.536726  
2002-03-28 08:17:00 51°12.061 2°47.565 9.685884 3.405933 31.540239  
2002-03-28 08:17:05 51°12.051 2°47.537 9.720043 3.407936 31.561549  
2002-03-28 08:17:11 51°12.038 2°47.502 9.649161 3.406334 31.546537  
2002-03-28 08:17:15 51°12.03 2°47.48 10.073443 3.408037 31.564034  
2002-03-28 08:17:20 51°12.02 2°47.452 9.773813 3.390807 31.387072  
2002-03-28 08:17:25 51°12.009 2°47.424 9.773813 3.390807 31.387072  
2002-03-28 08:17:31 51°11.996 2°47.389 9.86012 3.404931 31.532129  
2002-03-28 08:17:35 51°11.987 2°47.367 9.707418 3.407736 31.560218  
2002-03-28 08:17:40 51°11.977 2°47.338 9.866982 3.407035 31.554469  
2002-03-28 08:17:45 51°11.966 2°47.31 9.983103 3.407936 31.563732  
2002-03-28 08:17:51 51°11.953 2°47.276 9.673394 3.406334 31.545082  
2002-03-28 08:17:55 51°11.945 2°47.253 9.673394 3.406334 31.545082  
2002-03-28 08:17:59 51°11.937 2°47.231 9.789954 3.408237 31.563181  
2002-03-28 08:18:05 51°11.924 2°47.197 9.790943 3.407636 31.554097  
2002-03-28 08:18:11 51°11.911 2°47.163 9.792542 3.407035 31.54356  
2002-03-28 08:18:15 51°11.903 2°47.14 9.641003 3.411142 31.582108  
2002-03-28 08:18:20 51°11.892 2°47.112 9.642134 3.411442 31.582283  
2002-03-28 08:18:25 51°11.881 2°47.084 9.642134 3.411442 31.582283  
2002-03-28 08:18:29 51°11.873 2°47.061 9.757856 3.413947 31.605094  
2002-03-28 08:18:35 51°11.861 2°47.027 9.574425 3.413546 31.600978  
2002-03-28 08:18:39 51°11.852 2°47.005 9.803316 3.415249 31.617741  
2002-03-28 08:18:45 51°11.839 2°46.97 9.568287 3.416852 31.632747  
2002-03-28 08:18:50 51°11.828 2°46.942 10.143538 3.418054 31.642908  
2002-03-28 08:18:55 51°11.818 2°46.914 10.143538 3.418054 31.642908  
2002-03-28 08:19:00 51°11.808 2°46.885 10.069133 3.418955 31.651439  
2002-03-28 08:19:05 51°11.797 2°46.857 9.948894 3.420057 31.661299  
2002-03-28 08:19:10 51°11.786 2°46.829 9.829749 3.420558 31.664985  
2002-03-28 08:19:15 51°11.776 2°46.801 9.714909 3.419456 31.652938  
2002-03-28 08:19:20 51°11.765 2°46.772 9.831348 3.422261 31.681019  
2002-03-28 08:19:25 51°11.755 2°46.744 9.831348 3.422261 31.681019  
2002-03-28 08:19:30 51°11.744 2°46.716 9.907575 3.422762 31.686893  
2002-03-28 08:19:35 51°11.733 2°46.688 9.870271 3.42196 31.678661  
2002-03-28 08:19:40 51°11.723 2°46.659 9.566918 3.423663 31.696885  
2002-03-28 08:19:44 51°11.715 2°46.637 9.400747 3.424465 31.705118  
2002-03-28 08:19:49 51°11.704 2°46.608 9.711658 3.425366 31.717303  
2002-03-28 08:19:56 51°11.69 2°46.569 9.711658 3.425366 31.717303  
2002-03-28 08:20:00 51°11.681 2°46.546 9.861859 3.425266 31.717004  
2002-03-28 08:20:05 51°11.671 2°46.518 9.593117 3.425667 31.722583  
2002-03-28 08:20:10 51°11.66 2°46.49 10.09766 3.426168 31.726268  
2002-03-28 08:20:15 51°11.65 2°46.461 9.669199 3.426268 31.728028  
2002-03-28 08:20:20 51°11.639 2°46.433 9.544629 3.426769 31.735369  
2002-03-28 08:20:24 51°11.631 2°46.41 9.544629 3.426769 31.735369  
2002-03-28 08:20:30 51°11.618 2°46.377 9.543968 3.42717 31.738024  
2002-03-28 08:20:35 51°11.608 2°46.348 9.700728 3.42727 31.74271  
2002-03-28 08:20:40 51°11.597 2°46.32 9.85368 3.427771 31.74859  
2002-03-28 08:20:45 51°11.587 2°46.292 9.618126 3.428772 31.758886  
2002-03-28 08:20:50 51°11.576 2°46.263 9.92481 3.428973 31.762409  
2002-03-28 08:20:55 51°11.565 2°46.235 9.92481 3.428973 31.762409  
2002-03-28 08:21:00 51°11.555 2°46.208 9.651141 3.429474 31.769754  
2002-03-28 08:21:05 51°11.544 2°46.18 9.550532 3.429975 31.778565  
2002-03-28 08:21:10 51°11.534 2°46.152 10.081548 3.429774 31.776505  
2002-03-28 08:21:15 51°11.523 2°46.124 9.768495 3.431177 31.793123  
2002-03-28 08:21:20 51°11.513 2°46.096 9.64718 3.432379 31.807684  
2002-03-28 08:21:25 51°11.502 2°46.068 9.64718 3.432379 31.807684  
2002-03-28 08:21:31 51°11.49 2°46.035 9.801387 3.433381 31.81872  
2002-03-28 08:21:35 51°11.481 2°46.013 9.726779 3.434783 31.83608  
2002-03-28 08:21:41 51°11.469 2°45.98 9.994924 3.434984 31.837407  
2002-03-28 08:21:45 51°11.46 2°45.957 9.760163 3.435885 31.846681  
2002-03-28 08:21:51 51°11.447 2°45.925 9.722634 3.436286 31.852272  
2002-03-28 08:21:55 51°11.439 2°45.903 9.722634 3.436286 31.852272  
2002-03-28 08:22:00 51°11.429 2°45.875 9.725554 3.437087 31.86272  
2002-03-28 08:22:05 51°11.418 2°45.848 9.454308 3.437188 31.865955  
2002-03-28 08:22:10 51°11.408 2°45.82 9.68645 3.437288 31.868456  
2002-03-28 08:22:15 51°11.397 2°45.793 9.791131 3.437488 31.871253  
2002-03-28 08:22:20 51°11.387 2°45.765 9.639871 3.436586 31.863445